Weather in Fargo

United States     46˚52′36″N   96˚48′40″W
temp.,
°C
wind,
m/s
gust,
m/s
humid.,
%
clouds,
%
prec.,
mm/h
press.,
hPa
HPBL,
m
29 november, sun
sun2900:00+3˚nw10166786 0.0 10151012
03:00nw91565100 0.0 10211076
06:00−2˚nw8146497 0.0 1024997
09:00−4˚nnw9135820 0.0 10291041
12:00−2˚nnw7114510 0.0 10301111
15:00−1˚nnw711410 0.0 10301262
18:00−5˚n35540 0.0 1031150
21:00−6˚n12590 0.0 103137
30 november, mon
mon3000:00−6˚sse11620 0.0 103021
03:00−6˚s23640 0.0 102933
06:00−7˚s33680 0.0 102750
09:00−5˚sse47620 0.0 1025187
12:00s47410 0.0 1022364
15:00+1˚sse69380 0.0 1019469
18:00−2˚sse612520 0.0 1018277
21:00−3˚sse613520 0.0 1017310
1 december, tue
tue100:00−3˚sse613520 0.0 1016337
03:00−4˚sse512520 0.0 1016332
06:00−5˚sse511510 0.0 1015312
09:00−4˚sse6114834 0.0 1016340
12:00sse693967 0.0 1015417
15:00+1˚s4638100 0.0 1015490
18:00−2˚s2350100 0.0 101738
21:00−3˚s2353100 0.0 101824
2 december, wed
wed200:00−4˚s125697 0.0 102021
03:00−4˚ese115798 0.0 102221
06:00−4˚n336299 0.0 102557
09:00−6˚nnw598266 0.0 1028299
12:00−2˚nnw686860 0.0 1029497
15:00−1˚nnw58649 0.0 1028554
18:00−4˚nnw38805 0.0 1029190
21:00−5˚nw33840 0.0 102975
3 december, thu
thu300:00−6˚nw23890 0.0 102884
03:00−7˚nw34890 0.0 102884
06:00−8˚wnw23930 0.0 102771
09:00−7˚wnw24870 0.0 1026140
12:00−3˚wnw23595 0.0 1025408
15:00−1˚wsw2348100 0.0 1023368
18:00−3˚sw3356100 0.0 102258
21:00−4˚wsw345682 0.0 102156